Starlink 32360

operational
NORAD ID: 61007 Int'l Des: 2024-158 Owner: SPXS Country: US Constellation: starlink
LEOCIRCULAR

Über Starlink 32360

Beschreibung wird geladen...

Live-Position

3D-Globus wird geladen...

Nächste Überflüge

Höhenverlauf

Altitude vs Time

uPlot chart will show altitude changes over time

Zweizeiliger Elementsatz

1 61007U 24158T 26036.63482555 -.00000045 00000-0 10598-4 0 9996
2 61007 53.1587 199.1191 0000896 91.2106 268.8998 15.30192696 80884
Epoch: 5. Feb. 2026 • Age: 8 hours

Aktueller Status

Höhe 475.8 km
Geschwindigkeit 7.63 km/s
Subsatellitenpunkt 24.49°N, 134.32°W
Startdatum 5. Sept. 2024
Alter 1.4 years
Typ internet

Technische Details

Klassifizierung Payload
Masse 730.00 kg
Trockenmasse 700.00 kg
Gesamtmasse 730.00 kg
Länge 0.30 m
Durchmesser 4.10 m
Spannweite 29.00 m
Form Box + pan
Hersteller SPXS
Bus-Typ Starlink V2M
Phasenstatus In Orbit
Besitzer/Staat SPXS/US

Große Konstellationen

Loading constellations...